COSMOS 2251 DEB, 33940

Orbit data source: Space-Track

COSMOS 2251 DEB, 33940 is space debris in LEO originally from a launch on Wed, 16 Jun 1993 UTC launched from the Plesetsk Missile And Space Complex (PKMTR). The debris from Iridium 33, an American commercial communications satellite, has been tracked extensively since its accidental collision with the defunct Russian satellite Cosmos 2251 in 2009. This event, occurring at high speed in low Earth orbit (LEO), generated thousands of pieces of space debris, significantly increasing the risk of further collisions. The Iridium 33 debris cloud has impacted space traffic management and orbital debris mitigation strategies, making it a subject of ongoing study in space situational awareness.

Loading next visibility...
Identifier
33940, 1993-036EV
Orbit
LEO
Country
Flag of CISCIS
Related business
Manufacturer
Unknown
Mission
Spacecraft
Bus & Motor
Unknown
Mass
Unknown
Launch date (UTC)
1993-06-16 (33 years ago)
Launch vehicle
Unknown
Launch site
Plesetsk Missile And Space Complex (PKMTR)
Object type
Payload
Rocket body
Debris
Shape & HBR
Unknown shape, 0.2 m
Radar Cross Section
Medium (>0.1 m² and <1 m²)

Expand to show TLE details & history
Last TLE update: 1 day ago

TLE from 1 day ago
0 COSMOS 2251 DEB
1 33940U 93036EV  26208.58453089  .00003429  00000-0  70956-3 0  9998
2 33940  74.0389  70.8190 0011215  95.1688 291.7132 14.60649091919042
Epoch: 2026-07-27T14:01Z
TLE epoch observation values (Epoch: 2026-07-27T14:01:43.468Z)
Latitude
25.69311°
Longitude
-77.01167°
Altitude
690.982 km
Speed
7.515 km/s
True Right ascension
05h 14m 44s
True Declination
25° 33' 28"
Sunlit
Object was in daylight at epoch
Visualization orbit readout
Latitude
Unknown
Longitude
Unknown
Altitude
Unknown
Speed
Unknown
Apparent Right ascension
Unknown
Apparent Declination
Unknown
Sunlit
N/A
Visualization observer readout
Local Sidereal Time
08:42:07
Azimuth
Unknown
Elevation
Unknown
Doppler factor
Unknown
Orbital elements
Apogee altitude
696.601 km
Perigee altitude
680.75 km
Semi-major axis
7,066.812 km
Eccentricity
0.00112
Inclination
74.0389°
RAAN
70.819°
Arg. of periapsis
95.1688°
True anomaly
291.59374°
Mean anomaly
291.7132°
Eccentric anomaly
291.65348°
Mean motion
3.65349 °/min
Orbital period
98.54 mins
BSTAR
0.00070956
Loading maneuver chart data...
Computing Atmospheric mass density...

Documentation

Showing up to 5 results
|